This is the latest recevied weather packets stored in our database for station/object KE0LFX. If no packets are shown the sender has not sent any weather packets the latest 10 day(s).
| Time | Temp. | Humidity | Pressure | Rain* | Wind** | Luminosity | Snow |
|---|---|---|---|---|---|---|---|
| 1777989702 | 10° C | 51% | 1014.4 hPa | 0 mm | - | 87 W/m² | - |
| 1777989398 | 10° C | 50% | 1014.5 hPa | 0 mm | - | 121 W/m² | - |
| 1777989095 | 10° C | 50% | 1014.5 hPa | 0 mm | - | 134 W/m² | - |
| 1777988791 | 9.44° C | 52% | 1014.7 hPa | 0 mm | - | 119 W/m² | - |
| 1777988488 | 9.44° C | 51% | 1014.6 hPa | 0 mm | - | 102 W/m² | - |
| 1777988185 | 9.44° C | 51% | 1014.7 hPa | 0 mm | - | 91 W/m² | - |
| 1777987881 | 9.44° C | 50% | 1014.8 hPa | 0 mm | - | 79 W/m² | - |
| 1777987577 | 9.44° C | 51% | 1014.8 hPa | 0 mm | - | 70 W/m² | - |
| 1777987275 | 9.44° C | 49% | 1014.8 hPa | 0 mm | - | 69 W/m² | - |
| 1777986971 | 9.44° C | 50% | 1014.9 hPa | 0 mm | - | 77 W/m² | - |
| 1777986670 | 9.44° C | 53% | 1014.9 hPa | 0 mm | - | 83 W/m² | - |
| 1777986367 | 9.44° C | 53% | 1015 hPa | 0 mm | - | 80 W/m² | - |
| 1777986065 | 9.44° C | 55% | 1015.3 hPa | 0 mm | - | 75 W/m² | - |
| 1777985762 | 9.44° C | 54% | 1015 hPa | 0 mm | - | 51 W/m² | - |
| 1777985459 | 8.89° C | 54% | 1015.3 hPa | 0 mm | - | 39 W/m² | - |
| 1777985155 | 8.89° C | 56% | 1015.5 hPa | 0 mm | - | 42 W/m² | - |
| 1777984851 | 8.89° C | 55% | 1015.6 hPa | 0 mm | - | 30 W/m² | - |
| 1777984548 | 8.89° C | 56% | 1015.4 hPa | 0 mm | - | 33 W/m² | - |
| 1777984244 | 8.89° C | 56% | 1015.4 hPa | 0 mm | - | 46 W/m² | - |
| 1777983941 | 8.89° C | 57% | 1015.6 hPa | 0 mm | - | 55 W/m² | - |
| 1777983638 | 8.33° C | 58% | 1015.5 hPa | 0 mm | - | 63 W/m² | - |
| 1777983334 | 8.33° C | 61% | 1015.6 hPa | 0 mm | - | 63 W/m² | - |
| 1777983032 | 7.78° C | 61% | 1015.4 hPa | 0 mm | - | 39 W/m² | - |
| 1777982728 | 8.33° C | 60% | 1015.2 hPa | 0 mm | - | 34 W/m² | - |
| 1777982423 | 8.33° C | 59% | 1015 hPa | 0 mm | - | 26 W/m² | - |
* Rain latest hour (hover to see other rain measurements)
** Current wind speed in m/s (hover to see current wind gust speed)